Weather History for Midland Airpark, TX

Change the Weather History Date:

Friday, November 9, 2012

  Actual Average (KMAF) Record (KMAF)
Temperature  
Mean Temperature 72 °F 56 °F  
Max Temperature 83 °F 69 °F 86 °F (1942)
Min Temperature 60 °F 42 °F 27 °F (1948)
Degree Days  
Heating Degree Days 0 10  
Month to date heating degree days 74  
Since 1 July heating degree days 183  
Cooling Degree Days 6    
Growing Degree Days 22 (Base 50)    
Moisture  
Dew Point 50 °F    
Average Humidity 50    
Maximum Humidity 78    
Minimum Humidity 24    
Precipitation  
Precipitation 0.00 in 0.02 in 0.18 in (1952)
Month to date precipitation 0.23  
Year to date precipitation 13.54  
Snow  
Snow 0.00 in - - ()
Month to date snowfall  
Since 1 July snowfall  
Since 1 September snowfall  
Snow Depth -    
Sea Level Pressure  
Sea Level Pressure 29.94 in    
Wind  
Wind Speed 12 mph (South)    
Max Wind Speed 16 mph    
Max Gust Speed 21 mph    
Visibility 10 miles    
Events      
T = Trace of Precipitation, MM = Missing Value Source: NWS Daily Summary

Daily Weather History Graph

Daily Weather History Graph

Search for Another Location

Airport:

Trip Planner

Search our weather history database for the weather conditions in past years. The results will help you decide how hot, cold, wet, or windy it might be!

Date:

Astronomy

Nov. 09, 2012 Rise Set
Actual Time 7:12 AM CST 5:51 PM CST
Civil Twilight 6:46 AM CST 6:17 PM CST
Nautical Twilight 6:17 AM CST 6:46 PM CST
Astronomical Twilight 5:48 AM CST 7:15 PM CST
Moon 2:29 AM CST (11/9) 2:52 PM CST (11/9)
Length of Visible Light 11h 30m
Length of Day
10h 39m
Waning Crescent, 23% of the Moon is Illuminated
Nov 9
Waning Crescent
Nov 13
New
Nov 20
First Quarter
Nov 28
Full
Dec 6
Last Quarter

Hourly Weather History & Observations

Time (CST) Temp. Dew Point Humidity Pressure Visibility Wind Dir Wind Speed Gust Speed Precip Events Conditions
12:15 AM 69.1 °F 53.6 °F 58% 29.96 in 10.0 mi South 12.7 mph - N/A   Clear
12:35 AM 68.9 °F 53.6 °F 58% 29.96 in 10.0 mi South 11.5 mph - N/A   Clear
12:55 AM 68.2 °F 53.6 °F 60% 29.96 in 10.0 mi South 15.0 mph - N/A   Clear
1:15 AM 68.2 °F 53.6 °F 60% 29.96 in 10.0 mi South 12.7 mph - N/A   Clear
1:35 AM 67.8 °F 53.6 °F 60% 29.96 in 10.0 mi South 13.8 mph - N/A   Clear
1:55 AM 67.5 °F 53.6 °F 61% 29.95 in 10.0 mi South 13.8 mph - N/A   Clear
2:15 AM 67.3 °F 53.6 °F 61% 29.96 in 10.0 mi South 12.7 mph - N/A   Clear
2:35 AM 66.9 °F 53.6 °F 62% 29.95 in 10.0 mi South 11.5 mph - N/A   Clear
2:55 AM 66.6 °F 53.4 °F 63% 29.95 in 10.0 mi South 12.7 mph - N/A   Clear
3:15 AM 66.2 °F 53.1 °F 63% 29.95 in 10.0 mi South 11.5 mph 17.3 mph N/A   Clear
3:35 AM 65.8 °F 52.9 °F 63% 29.96 in 10.0 mi SSW 10.4 mph - N/A   Clear
3:55 AM 65.5 °F 52.9 °F 64% 29.96 in 10.0 mi SSW 10.4 mph - N/A   Clear
4:15 AM 65.1 °F 52.9 °F 65% 29.96 in 10.0 mi South 11.5 mph - N/A   Clear
4:35 AM 64.6 °F 53.1 °F 66% 29.96 in 10.0 mi South 13.8 mph - N/A   Clear
4:55 AM 64.2 °F 53.1 °F 67% 29.96 in 10.0 mi South 11.5 mph 16.1 mph N/A   Clear
5:15 AM 63.5 °F 53.1 °F 69% 29.96 in 10.0 mi South 11.5 mph - N/A   Clear
5:35 AM 62.6 °F 52.9 °F 70% 29.96 in 10.0 mi South 10.4 mph - N/A   Clear
5:55 AM 61.9 °F 52.9 °F 72% 29.96 in 10.0 mi SSW 11.5 mph - N/A   Clear
6:15 AM 62.1 °F 53.1 °F 72% 29.96 in 10.0 mi SSW 9.2 mph - N/A   Clear
6:35 AM 61.9 °F 53.2 °F 73% 29.96 in 10.0 mi SSW 10.4 mph - N/A   Clear
6:55 AM 61.3 °F 53.1 °F 74% 29.97 in 10.0 mi SSW 10.4 mph - N/A   Clear
7:15 AM 60.6 °F 53.1 °F 76% 29.98 in 10.0 mi SSW 8.1 mph - N/A   Clear
7:35 AM 60.3 °F 53.1 °F 77% 29.98 in 10.0 mi SSW 5.8 mph - N/A   Clear
7:55 AM 60.3 °F 53.2 °F 78% 29.99 in 10.0 mi SSW 5.8 mph - N/A   Clear
8:15 AM 61.2 °F 53.6 °F 76% 29.99 in 10.0 mi South 6.9 mph - N/A   Clear
8:55 AM 63.7 °F 54.0 °F 71% 30.00 in 10.0 mi SSW 10.4 mph - N/A   Clear
9:15 AM 65.7 °F 53.8 °F 65% 29.99 in 10.0 mi SSW 11.5 mph - N/A   Clear
9:35 AM 68.0 °F 52.9 °F 58% 30.00 in 10.0 mi SSW 11.5 mph 17.3 mph N/A   Clear
9:55 AM 70.2 °F 51.4 °F 51% 30.01 in 10.0 mi SSW 11.5 mph - N/A   Clear
10:15 AM 72.7 °F 49.8 °F 44% 30.01 in 10.0 mi WSW 11.5 mph 17.3 mph N/A   Clear
10:35 AM 74.3 °F 46.2 °F 37% 30.01 in 10.0 mi SW 11.5 mph - N/A   Clear
10:55 AM 75.7 °F 45.7 °F 34% 30.00 in 10.0 mi SW 9.2 mph - N/A   Clear
11:15 AM 76.5 °F 45.7 °F 33% 30.00 in 10.0 mi WSW 10.4 mph - N/A   Clear
11:35 AM 77.4 °F 45.9 °F 33% 30.00 in 10.0 mi SW 10.4 mph 16.1 mph N/A   Clear
11:55 AM 78.1 °F 46.0 °F 32% 29.99 in 10.0 mi SSW 11.5 mph - N/A   Clear
12:15 PM 79.0 °F 45.3 °F 30% 29.97 in 10.0 mi SSW 11.5 mph - N/A   Clear
12:35 PM 80.2 °F 44.4 °F 28% 29.96 in 10.0 mi SSW 10.4 mph - N/A   Clear
12:55 PM 81.0 °F 42.8 °F 26% 29.95 in 10.0 mi SW 10.4 mph 19.6 mph N/A   Clear
1:15 PM 81.7 °F 41.5 °F 24% 29.94 in 10.0 mi WSW 11.5 mph 16.1 mph N/A   Clear
1:35 PM 82.0 °F 43.0 °F 25% 29.93 in 10.0 mi SSW 12.7 mph 17.3 mph N/A   Clear
1:55 PM 81.9 °F 44.1 °F 26% 29.92 in 10.0 mi SW 9.2 mph 16.1 mph N/A   Clear
2:15 PM 82.4 °F 44.6 °F 26% 29.91 in 10.0 mi SSW 8.1 mph 18.4 mph N/A   Clear
2:35 PM 82.8 °F 43.5 °F 25% 29.91 in 10.0 mi SSW 11.5 mph 17.3 mph N/A   Clear
2:55 PM 82.9 °F 43.7 °F 25% 29.90 in 10.0 mi SSW 15.0 mph 18.4 mph N/A   Clear
3:15 PM 83.3 °F 43.9 °F 25% 29.90 in 10.0 mi SW 8.1 mph - N/A   Clear
3:35 PM 82.8 °F 44.2 °F 26% 29.89 in 10.0 mi South 15.0 mph 19.6 mph N/A   Clear
3:55 PM 82.6 °F 44.4 °F 26% 29.89 in 10.0 mi South 10.4 mph 16.1 mph N/A   Clear
4:15 PM 82.4 °F 44.1 °F 26% 29.89 in 10.0 mi SW 11.5 mph - N/A   Clear
4:35 PM 82.2 °F 44.1 °F 26% 29.89 in 10.0 mi South 13.8 mph 18.4 mph N/A   Clear
4:55 PM 81.7 °F 43.5 °F 26% 29.89 in 10.0 mi South 10.4 mph - N/A   Clear
5:15 PM 81.1 °F 43.9 °F 27% 29.89 in 10.0 mi SSE 10.4 mph - N/A   Clear
5:35 PM 79.7 °F 46.0 °F 30% 29.89 in 10.0 mi SSE 11.5 mph - N/A   Clear
5:55 PM 78.3 °F 46.0 °F 32% 29.89 in 10.0 mi SSE 8.1 mph - N/A   Clear
6:15 PM 76.8 °F 46.4 °F 34% 29.89 in 10.0 mi SSE 9.2 mph - N/A   Clear
6:35 PM 75.7 °F 46.6 °F 35% 29.90 in 10.0 mi SSE 9.2 mph - N/A   Clear
6:55 PM 75.0 °F 47.7 °F 38% 29.90 in 10.0 mi SSE 10.4 mph - N/A   Clear
7:15 PM 74.1 °F 49.3 °F 41% 29.91 in 10.0 mi SSE 11.5 mph - N/A   Clear
7:35 PM 73.4 °F 50.9 °F 45% 29.91 in 10.0 mi South 15.0 mph 18.4 mph N/A   Clear
7:55 PM 72.5 °F 52.3 °F 49% 29.91 in 10.0 mi SSE 13.8 mph 20.7 mph N/A   Clear
8:15 PM 72.0 °F 54.0 °F 53% 29.92 in 10.0 mi South 13.8 mph - N/A   Clear
8:35 PM 71.6 °F 54.9 °F 55% 29.93 in 10.0 mi SSE 13.8 mph 18.4 mph N/A   Clear
9:15 PM 70.0 °F 55.4 °F 60% 29.93 in 10.0 mi SSE 10.4 mph 16.1 mph N/A   Clear
9:35 PM 69.1 °F 55.6 °F 62% 29.93 in 10.0 mi SSE 10.4 mph - N/A   Clear
9:55 PM 68.4 °F 55.9 °F 64% 29.93 in 10.0 mi SSE 13.8 mph - N/A   Clear
10:15 PM 68.0 °F 56.3 °F 66% 29.92 in 10.0 mi SSE 15.0 mph - N/A   Clear
10:35 PM 67.8 °F 56.3 °F 67% 29.93 in 10.0 mi South 12.7 mph - N/A   Clear
10:55 PM 68.0 °F 56.3 °F 66% 29.92 in 10.0 mi SSE 13.8 mph - N/A   Clear
11:15 PM 68.0 °F 55.8 °F 65% 29.91 in 10.0 mi South 16.1 mph 20.7 mph N/A   Clear
11:35 PM 68.0 °F 55.0 °F 63% 29.91 in 10.0 mi South 13.8 mph 18.4 mph N/A   Clear
11:55 PM 67.5 °F 54.5 °F 63% 29.90 in 10.0 mi South 13.8 mph 18.4 mph N/A   Clear